Location: Bad Dürkheim
(49.4618°N, 8.1724°E)
Time: 20:49:20
(UTC+00:00)

Okean 2 - Pass Details

Date: 14 June 2025
Orbit: 522 x 533 km, 82.5° (Epoch: 16 July)

Event Time Altitude Azimuth Distance (km) Brightness Sun altitude
Exits shadow 21:50:14 25° 164° (SSE) 1,107 4.2 -14.1°
Maximum altitude 21:52:19 55° 95° (E) 641 3.4 -14.2°
Drops below altitude 10° 21:56:09 10° 18° (NNE) 1,786 6.7 -14.4°
Sets 21:58:20 0° 14° (NNE) 2,679 7.8 -14.6°
